Regional Weather Roundup
Issued by NWS State College, PA

Home | Current Version | Previous Version | Text Only | Print | Product List | Glossary On
Versions: 1 2 3 4 5 6 7 8 9 10 11 12 13 14 15 16 17 18 19 20 21 22 23 24 25 26 27 28 29 30 31 32 33 34 35 36 37 38 39 40 41 42 43 44 45 46 47 48 49 50
000
ASUS41 KCTP 292310
RWRCTP

REGIONAL WEATHER ROUNDUP
NATIONAL WEATHER SERVICE STATE COLLEGE PA
700 PM EDT FRI APR 29 2016

Note: "fair" indicates few or no clouds below 12,000 feet with no
significant weather and/or obstructions to visibility.

* = STATION THAT DOES NOT REPORT PRECIPITATION /E.G. RAIN...SNOW...ETC/
    THUNDER OR FOG.

PAZ002>004-007>009-013>016-020>023-029>032-300000-
WESTERN PENNSYLVANIA

CITY           SKY/WX    TMP DP  RH WIND       PRES   REMARKS
ERIE           MOSUNNY   47  37  68 VRB3      30.08R
MEADVILLE      CLOUDY    43  40  89 VRB6      30.05R
FRANKLIN*      CLOUDY    46  41  81 N3        30.06R
NEW CASTLE     CLOUDY    49  46  90 W6        30.06R
BEAVER COUNTY  CLOUDY    50  46  87 NW6       30.05R
BUTLER*        CLOUDY    50  46  87 CALM      30.07R
PITTSBURGH INT DRIZZLE   52  47  83 N10       30.04R
PITTSBURGH     CLOUDY    52  47  83 N9        30.03R
INDIANA*       CLOUDY    52  50  93 NW7       30.06R
LATROBE        CLOUDY    54  52  94 NW7       30.04R
WASHINGTON CO* CLOUDY    55  46  71 NW8       30.03S
$$

PAZ004>006-010>012-017>019-024>028-033>037-041-042-045-046-049>053-300000-
CENTRAL PENNSYLVANIA

CITY           SKY/WX    TMP DP  RH WIND       PRES   REMARKS
BRADFORD       LGT RAIN  45  42  89 E6        30.01S FOG
DUBOIS         CLOUDY    47  45  93 NW5       30.01R
CLEARFIELD     CLOUDY    47  45  93 E6        30.03R FOG
JOHNSTOWN      CLOUDY    50  44  80 NW10      30.01R
ALTOONA        CLOUDY    47  46  97 CALM      30.03R FOG
STATE COLLEGE  CLOUDY    45  45 100 CALM      30.02S FOG
WILLIAMSPORT   LGT RAIN  47  44  90 CALM      30.06R FOG
SELINSGROVE    CLOUDY    47  45  93 CALM      30.06R FOG
FT INDIANTOWN  CLOUDY    48  45  87 E3        30.05S
CAPITAL CITY   CLOUDY    50  46  86 E6        30.05R FOG
HARRISBURG     DRIZZLE   49  46  90 E7        30.04R FOG
YORK           CLOUDY    50  47  89 E6        30.05R
$$

PAZ038>040-043-044-047-048-054-055-060>062-067>071-300000-
EASTERN PENNSYLVANIA

CITY           SKY/WX    TMP DP  RH WIND       PRES   REMARKS
SCRANTON       LGT RAIN  47  42  83 SW5       30.05R
MOUNT POCONO   CLOUDY    39  35  86 SE9       30.03S
ALLENTOWN      LGT RAIN  49  40  71 SE6       30.06F
QUAKERTOWN*    CLOUDY    46  41  81 E3        30.07S
READING        CLOUDY    50  40  68 CALM      30.05R
LANCASTER      CLOUDY    49  43  80 E8        30.05R
COATESVILLE    CLOUDY    48  46  93 SE5       30.07R
POTTSTOWN      CLOUDY    48  41  76 VRB3      30.08R
BLUE BELL      CLOUDY    46  41  81 E6        30.07R
DOYLESTOWN     CLOUDY    46  40  79 VRB3      30.07R
WILLOW GROVE   NOT AVBL
NORTH PHILA    CLOUDY    49  42  77 E14       30.10R
PHILADELPHIA   CLOUDY    50  43  77 E10       30.08S
$$




USA.gov is the U.S. government's official web portal to all federal, state and local government web resources and services.